| time (UTC) | temp C | wind direction | speed KPH | gust KPH | rain 1hr cm | rain 24hr cm | rain mn cm | humidity % | barometer mb |
| 20260507211842 | 16 | 279 | 3.2 | 4.8 | 0.00 | 0.00 | 0.00 | 39 | 1011.0 |
| 20260507211339 | 16 | 240 | 3.2 | 3.2 | 0.00 | 0.00 | 0.00 | 39 | 1010.9 |
| 20260507210836 | 17 | 232 | 3.2 | 8.0 | 0.00 | 0.00 | 0.00 | 39 | 1010.7 |
| 20260507210333 | 17 | 203 | 1.6 | 3.2 | 0.00 | 0.00 | 0.00 | 38 | 1010.5 |
| 20260507205829 | 16 | 187 | 3.2 | 3.2 | 0.00 | 0.00 | 0.00 | 40 | 1010.5 |
| 20260507205327 | 16 | 214 | 0.0 | 0.0 | 0.00 | 0.00 | 0.00 | 41 | 1010.7 |
| 20260507204822 | 16 | 212 | 3.2 | 4.8 | 0.00 | 0.00 | 0.00 | 40 | 1010.6 |
| 20260507204320 | 16 | 45 | 4.8 | 8.0 | 0.00 | 0.00 | 0.00 | 40 | 1010.4 |
| 20260507203818 | 16 | 343 | 6.4 | 9.7 | 0.00 | 0.00 | 0.00 | 40 | 1010.5 |
| 20260507203315 | 16 | 209 | 1.6 | 1.6 | 0.00 | 0.00 | 0.00 | 39 | 1010.5 |
| 20260507202811 | 16 | 202 | 0.0 | 1.6 | 0.00 | 0.00 | 0.00 | 41 | 1010.7 |
| 20260507202308 | 16 | 239 | 3.2 | 3.2 | 0.00 | 0.00 | 0.00 | 43 | 1010.5 |
| 20260507201803 | 16 | 208 | 4.8 | 4.8 | 0.00 | 0.00 | 0.00 | 40 | 1010.6 |
| 20260507201259 | 17 | 193 | 0.0 | 0.0 | 0.00 | 0.00 | 0.00 | 40 | 1010.4 |
| 20260507200756 | 16 | 152 | 3.2 | 4.8 | 0.00 | 0.00 | 0.00 | 42 | 1010.6 |
| 20260507200252 | 15 | 214 | 3.2 | 3.2 | 0.00 | 0.00 | 0.00 | 42 | 1010.6 |
| 20260507195748 | 16 | 347 | 4.8 | 4.8 | 0.00 | 0.00 | 0.00 | 42 | 1010.6 |
| 20260507195245 | 15 | 261 | 6.4 | 8.0 | 0.00 | 0.00 | 0.00 | 41 | 1010.7 |
| 20260507194743 | 16 | 314 | 4.8 | 8.0 | 0.00 | 0.00 | 0.00 | 41 | 1010.9 |
| 20260507194238 | 16 | 319 | 6.4 | 8.0 | 0.00 | 0.00 | 0.00 | 41 | 1010.7 |
| 20260507193735 | 17 | 219 | 1.6 | 3.2 | 0.00 | 0.00 | 0.00 | 41 | 1010.6 |
| 20260507193232 | 17 | 187 | 0.0 | 1.6 | 0.00 | 0.00 | 0.00 | 44 | 1011.0 |
| 20260507192728 | 16 | 204 | 0.0 | 0.0 | 0.00 | 0.00 | 0.00 | 42 | 1010.8 |
| 20260507192225 | 16 | 207 | 0.0 | 0.0 | 0.00 | 0.00 | 0.00 | 43 | 1010.9 |
| 20260507191721 | 15 | 279 | 4.8 | 8.0 | 0.00 | 0.00 | 0.00 | 43 | 1010.8 |
| 20260507191218 | 15 | 193 | 3.2 | 3.2 | 0.00 | 0.00 | 0.00 | 44 | 1010.8 |
| 20260507190715 | 15 | 186 | 1.6 | 3.2 | 0.00 | 0.00 | 0.00 | 44 | 1011.1 |
| 20260507190214 | 15 | 274 | 3.2 | 3.2 | 0.00 | 0.00 | 0.00 | 43 | 1011.2 |
| 20260507185712 | 15 | 194 | 1.6 | 3.2 | 0.00 | 0.00 | 0.00 | 45 | 1010.9 |
| 20260507185208 | 15 | 237 | 3.2 | 3.2 | 0.00 | 0.00 | 0.00 | 44 | 1011.2 |
| 20260507184706 | 15 | 228 | 1.6 | 3.2 | 0.00 | 0.00 | 0.00 | 44 | 1011.1 |
| 20260507184203 | 15 | 225 | 3.2 | 4.8 | 0.00 | 0.00 | 0.00 | 44 | 1011.2 |
| 20260507183654 | 15 | 203 | 1.6 | 3.2 | 0.00 | 0.00 | 0.00 | 46 | 1011.1 |
| 20260507183151 | 16 | 193 | 3.2 | 4.8 | 0.00 | 0.00 | 0.00 | 43 | 1011.3 |
| 20260507182648 | 16 | 204 | 0.0 | 0.0 | 0.00 | 0.00 | 0.00 | 43 | 1011.3 |
| 20260507182143 | 16 | 222 | 4.8 | 8.0 | 0.00 | 0.00 | 0.00 | 44 | 1011.3 |
| 20260507181640 | 15 | 194 | 1.6 | 1.6 | 0.00 | 0.00 | 0.00 | 44 | 1011.1 |
| 20260507181136 | 16 | 197 | 1.6 | 3.2 | 0.00 | 0.00 | 0.00 | 43 | 1011.3 |
| 20260507180633 | 16 | 243 | 6.4 | 9.7 | 0.00 | 0.00 | 0.00 | 44 | 1011.2 |
| 20260507180130 | 16 | 209 | 1.6 | 1.6 | 0.00 | 0.00 | 0.00 | 45 | 1011.6 |
| 20260507175626 | 15 | 228 | 3.2 | 3.2 | 0.00 | 0.00 | 0.00 | 44 | 1011.6 |
| 20260507175123 | 16 | 228 | 4.8 | 4.8 | 0.00 | 0.00 | 0.00 | 42 | 1011.6 |
| 20260507174620 | 16 | 212 | 1.6 | 3.2 | 0.00 | 0.00 | 0.00 | 43 | 1011.5 |
| 20260507174118 | 16 | 293 | 8.0 | 11.3 | 0.00 | 0.00 | 0.00 | 43 | 1011.5 |
| 20260507173615 | 17 | 264 | 1.6 | 4.8 | 0.00 | 0.00 | 0.00 | 45 | 1011.7 |
| 20260507173112 | 16 | 230 | 3.2 | 3.2 | 0.00 | 0.00 | 0.00 | 41 | 1011.8 |
| 20260507172608 | 16 | 195 | 3.2 | 3.2 | 0.00 | 0.00 | 0.00 | 43 | 1011.7 |
| 20260507172106 | 16 | 187 | 0.0 | 0.0 | 0.00 | 0.00 | 0.00 | 46 | 1012.1 |
| 20260507171600 | 16 | 248 | 6.4 | 8.0 | 0.00 | 0.00 | 0.00 | 42 | 1012.1 |
| 20260507171058 | 16 | 203 | 1.6 | 1.6 | 0.00 | 0.00 | 0.00 | 45 | 1012.3 |
| 20260507170555 | 15 | 184 | 1.6 | 3.2 | 0.00 | 0.00 | 0.00 | 46 | 1012.1 |
| 20260507170051 | 15 | 279 | 8.0 | 9.7 | 0.00 | 0.00 | 0.00 | 44 | 1012.4 |
| 20260507165546 | 16 | 176 | 4.8 | 4.8 | 0.00 | 0.00 | 0.00 | 40 | 1012.4 |
| 20260507165038 | 16 | 190 | 3.2 | 4.8 | 0.00 | 0.00 | 0.00 | 45 | 1012.4 |
| 20260507164534 | 16 | 194 | 0.0 | 1.6 | 0.00 | 0.00 | 0.00 | 44 | 1012.2 |
| 20260507164032 | 16 | 178 | 0.0 | 1.6 | 0.00 | 0.00 | 0.00 | 49 | 1012.4 |
| 20260507163528 | 16 | 204 | 0.0 | 0.0 | 0.00 | 0.00 | 0.00 | 45 | 1012.3 |
| 20260507163026 | 15 | 271 | 1.6 | 3.2 | 0.00 | 0.00 | 0.00 | 45 | 1012.6 |
| 20260507162521 | 16 | 253 | 4.8 | 8.0 | 0.00 | 0.00 | 0.00 | 44 | 1012.4 |
| 20260507162018 | 16 | 155 | 3.2 | 4.8 | 0.00 | 0.00 | 0.00 | 45 | 1012.7 |
| 20260507161514 | 16 | 247 | 4.8 | 8.0 | 0.00 | 0.00 | 0.00 | 48 | 1012.7 |
| 20260507161012 | 16 | 254 | 3.2 | 8.0 | 0.00 | 0.00 | 0.00 | 46 | 1012.7 |
| 20260507160507 | 15 | 217 | 1.6 | 3.2 | 0.00 | 0.00 | 0.00 | 45 | 1012.8 |
| 20260507160004 | 15 | 200 | 3.2 | 3.2 | 0.00 | 0.00 | 0.00 | 47 | 1012.9 |
| 20260507155459 | 15 | 250 | 1.6 | 3.2 | 0.00 | 0.00 | 0.00 | 46 | 1013.0 |
| 20260507154956 | 14 | 164 | 0.0 | 0.0 | 0.00 | 0.00 | 0.00 | 51 | 1012.8 |
| 20260507154453 | 14 | 249 | 6.4 | 8.0 | 0.00 | 0.00 | 0.00 | 50 | 1012.9 |
| 20260507153950 | 13 | 256 | 3.2 | 4.8 | 0.00 | 0.00 | 0.00 | 52 | 1012.9 |
| 20260507153447 | 14 | 192 | 1.6 | 1.6 | 0.00 | 0.00 | 0.00 | 50 | 1013.1 |
| 20260507152943 | 14 | 281 | 3.2 | 3.2 | 0.00 | 0.00 | 0.00 | 48 | 1013.0 |
| 20260507152439 | 14 | 353 | 3.2 | 8.0 | 0.00 | 0.00 | 0.00 | 49 | 1013.0 |
| 20260507151935 | 14 | 198 | 3.2 | 4.8 | 0.00 | 0.00 | 0.00 | 51 | 1013.1 |
| 20260507151432 | 13 | 253 | 3.2 | 3.2 | 0.00 | 0.00 | 0.00 | 49 | 1013.1 |
| 20260507150929 | 12 | 206 | 1.6 | 3.2 | 0.00 | 0.00 | 0.00 | 51 | 1013.1 |
| 20260507150426 | 13 | 325 | 3.2 | 8.0 | 0.00 | 0.00 | 0.00 | 48 | 1013.3 |
| 20260507145922 | 13 | 255 | 1.6 | 1.6 | 0.00 | 0.00 | 0.00 | 51 | 1013.3 |
| 20260507145418 | 13 | 192 | 0.0 | 1.6 | 0.00 | 0.00 | 0.00 | 51 | 1013.7 |
| 20260507144915 | 15 | 194 | 0.0 | 1.6 | 0.00 | 0.00 | 0.00 | 55 | 1013.6 |
| 20260507144412 | 13 | 243 | 1.6 | 4.8 | 0.00 | 0.00 | 0.00 | 55 | 1013.6 |
| 20260507143909 | 13 | 200 | 0.0 | 0.0 | 0.00 | 0.00 | 0.00 | 51 | 1013.7 |
| 20260507143406 | 13 | 213 | 1.6 | 3.2 | 0.00 | 0.00 | 0.00 | 51 | 1013.6 |
| 20260507142903 | 14 | 255 | 1.6 | 3.2 | 0.00 | 0.00 | 0.00 | 51 | 1013.7 |
| 20260507142359 | 13 | 190 | 1.6 | 3.2 | 0.00 | 0.00 | 0.00 | 52 | 1013.9 |
| 20260507141856 | 13 | 263 | 4.8 | 4.8 | 0.00 | 0.00 | 0.00 | 55 | 1014.0 |
| 20260507141352 | 13 | 233 | 3.2 | 3.2 | 0.00 | 0.00 | 0.00 | 58 | 1014.0 |
| 20260507140849 | 13 | 200 | 1.6 | 3.2 | 0.00 | 0.00 | 0.00 | 53 | 1014.1 |
| 20260507140346 | 13 | 202 | 0.0 | 0.0 | 0.00 | 0.00 | 0.00 | 57 | 1014.1 |
| 20260507135844 | 13 | 200 | 3.2 | 4.8 | 0.00 | 0.00 | 0.00 | 56 | 1014.1 |
| 20260507135340 | 13 | 198 | 0.0 | 1.6 | 0.00 | 0.00 | 0.00 | 55 | 1014.2 |
| 20260507134838 | 13 | 194 | 0.0 | 0.0 | 0.00 | 0.00 | 0.00 | 62 | 1014.3 |
| 20260507134333 | 13 | 187 | 0.0 | 0.0 | 0.00 | 0.00 | 0.00 | 58 | 1014.1 |
| 20260507133830 | 13 | 199 | 0.0 | 0.0 | 0.00 | 0.00 | 0.00 | 57 | 1014.3 |
| 20260507133325 | 12 | 199 | 0.0 | 0.0 | 0.00 | 0.00 | 0.00 | 58 | 1014.3 |
| 20260507132824 | 12 | 196 | 0.0 | 1.6 | 0.00 | 0.00 | 0.00 | 65 | 1014.4 |
| 20260507132320 | 12 | 192 | 0.0 | 1.6 | 0.00 | 0.00 | 0.00 | 67 | 1014.4 |
| 20260507131817 | 12 | 203 | 0.0 | 1.6 | 0.00 | 0.00 | 0.00 | 64 | 1014.1 |
| 20260507131314 | 11 | 194 | 0.0 | 1.6 | 0.00 | 0.00 | 0.00 | 67 | 1014.3 |
| 20260507130810 | 11 | 197 | 0.0 | 0.0 | 0.00 | 0.00 | 0.00 | 67 | 1014.4 |
| 20260507130308 | 10 | 243 | 1.6 | 3.2 | 0.00 | 0.00 | 0.00 | 72 | 1014.4 |
| 20260507125807 | 10 | 199 | 1.6 | 3.2 | 0.00 | 0.00 | 0.00 | 74 | 1014.3 |
| 20260507125306 | 10 | 201 | 0.0 | 0.0 | 0.00 | 0.00 | 0.00 | 81 | 1014.3 |
| 20260507124801 | 8 | 195 | 0.0 | 0.0 | 0.00 | 0.00 | 0.00 | 83 | 1014.3 |
| 20260507124257 | 8 | 195 | 0.0 | 0.0 | 0.00 | 0.00 | 0.00 | 84 | 1014.4 |
| 20260507123756 | 8 | 192 | 0.0 | 1.6 | 0.00 | 0.00 | 0.00 | 83 | 1014.6 |
| 20260507123253 | 8 | 175 | 0.0 | 1.6 | 0.00 | 0.00 | 0.00 | 83 | 1014.6 |
| 20260507122748 | 7 | 200 | 0.0 | 0.0 | 0.00 | 0.00 | 0.00 | 86 | 1014.6 |
| 20260507122244 | 7 | 201 | 0.0 | 0.0 | 0.00 | 0.00 | 0.00 | 86 | 1014.6 |
| 20260507121740 | 6 | 194 | 0.0 | 0.0 | 0.00 | 0.00 | 0.00 | 88 | 1014.8 |
| 20260507121236 | 6 | 209 | 0.0 | 1.6 | 0.00 | 0.00 | 0.00 | 87 | 1014.6 |
| 20260507120732 | 7 | 166 | 1.6 | 1.6 | 0.00 | 0.00 | 0.00 | 86 | 1014.3 |
| 20260507120230 | 7 | 187 | 0.0 | 1.6 | 0.00 | 0.00 | 0.00 | 87 | 1014.5 |
| 20260507115726 | 6 | 196 | 0.0 | 0.0 | 0.00 | 0.00 | 0.00 | 87 | 1014.6 |
| 20260507115222 | 6 | 191 | 0.0 | 0.0 | 0.00 | 0.00 | 0.00 | 88 | 1014.3 |
| 20260507114717 | 5 | 196 | 0.0 | 0.0 | 0.00 | 0.00 | 0.00 | 91 | 1014.4 |
| 20260507114215 | 5 | 188 | 0.0 | 0.0 | 0.00 | 0.00 | 0.00 | 92 | 1014.4 |
| 20260507113712 | 5 | 190 | 0.0 | 0.0 | 0.00 | 0.00 | 0.00 | 95 | 1014.6 |
| 20260507113209 | 5 | 188 | 0.0 | 0.0 | 0.00 | 0.00 | 0.00 | 98 | 1014.4 |
| 20260507112707 | 4 | 196 | 0.0 | 0.0 | 0.00 | 0.00 | 0.00 | 99 | 1014.2 |
| 20260507112203 | 3 | 194 | 0.0 | 0.0 | 0.00 | 0.00 | 0.00 | 99 | 1014.3 |
| 20260507111701 | 3 | 194 | 0.0 | 0.0 | 0.00 | 0.00 | 0.00 | 99 | 1014.2 |
| 20260507111157 | 2 | 197 | 0.0 | 0.0 | 0.00 | 0.00 | 0.00 | 99 | 1014.3 |
| 20260507110653 | 2 | 193 | 0.0 | 0.0 | 0.00 | 0.00 | 0.00 | 99 | 1014.2 |
| 20260507110150 | 2 | 195 | 0.0 | 0.0 | 0.00 | 0.00 | 0.00 | 99 | 1014.4 |
| 20260507105647 | 1 | 196 | 0.0 | 0.0 | 0.00 | 0.00 | 0.00 | 99 | 1014.1 |
| 20260507105143 | 1 | 195 | 0.0 | 0.0 | 0.00 | 0.00 | 0.00 | 99 | 1014.1 |
| 20260507104641 | 1 | 197 | 0.0 | 0.0 | 0.00 | 0.00 | 0.00 | 99 | 1014.1 |
| 20260507104137 | 1 | 197 | 0.0 | 0.0 | 0.00 | 0.00 | 0.00 | 99 | 1013.9 |
| 20260507103633 | 1 | 196 | 0.0 | 0.0 | 0.00 | 0.00 | 0.00 | 99 | 1014.0 |
| 20260507103130 | 1 | 197 | 0.0 | 0.0 | 0.00 | 0.00 | 0.00 | 99 | 1013.9 |
| 20260507102626 | 1 | 193 | 0.0 | 1.6 | 0.00 | 0.00 | 0.00 | 99 | 1013.7 |
| 20260507102123 | 1 | 192 | 0.0 | 0.0 | 0.00 | 0.00 | 0.00 | 99 | 1013.8 |
| 20260507101618 | 1 | 197 | 0.0 | 0.0 | 0.00 | 0.00 | 0.00 | 99 | 1013.8 |
| 20260507101115 | 1 | 196 | 0.0 | 0.0 | 0.00 | 0.00 | 0.00 | 99 | 1014.0 |
| 20260507100612 | 1 | 197 | 0.0 | 0.0 | 0.00 | 0.00 | 0.00 | 99 | 1013.9 |
| 20260507100110 | 1 | 197 | 0.0 | 0.0 | 0.00 | 0.00 | 0.00 | 99 | 1013.8 |
| 20260507095608 | 1 | 197 | 0.0 | 0.0 | 0.00 | 0.00 | 0.00 | 99 | 1013.7 |
| 20260507095104 | 1 | 198 | 0.0 | 0.0 | 0.00 | 0.00 | 0.00 | 99 | 1013.7 |
| 20260507094600 | 1 | 196 | 0.0 | 0.0 | 0.00 | 0.00 | 0.00 | 99 | 1013.8 |
| 20260507094057 | 1 | 196 | 0.0 | 0.0 | 0.00 | 0.00 | 0.00 | 99 | 1013.8 |
| 20260507093555 | 1 | 196 | 0.0 | 0.0 | 0.00 | 0.00 | 0.00 | 99 | 1013.9 |
| 20260507093053 | 2 | 197 | 0.0 | 0.0 | 0.00 | 0.00 | 0.00 | 99 | 1013.8 |
| 20260507092549 | 2 | 195 | 0.0 | 0.0 | 0.00 | 0.00 | 0.00 | 99 | 1013.9 |
| 20260507092046 | 2 | 198 | 0.0 | 0.0 | 0.00 | 0.00 | 0.00 | 99 | 1013.9 |
| 20260507091543 | 2 | 198 | 0.0 | 0.0 | 0.00 | 0.00 | 0.00 | 99 | 1014.0 |
| 20260507091039 | 2 | 198 | 0.0 | 0.0 | 0.00 | 0.00 | 0.00 | 99 | 1013.8 |
| 20260507090535 | 2 | 195 | 0.0 | 0.0 | 0.00 | 0.00 | 0.00 | 99 | 1013.9 |
| 20260507090032 | 2 | 198 | 0.0 | 0.0 | 0.00 | 0.00 | 0.00 | 99 | 1014.0 |
| 20260507085529 | 2 | 198 | 0.0 | 0.0 | 0.00 | 0.00 | 0.00 | 99 | 1014.0 |
| 20260507085026 | 2 | 199 | 0.0 | 0.0 | 0.00 | 0.00 | 0.00 | 99 | 1013.9 |
| 20260507084522 | 2 | 199 | 0.0 | 0.0 | 0.00 | 0.00 | 0.00 | 98 | 1013.8 |
| 20260507084019 | 2 | 199 | 0.0 | 0.0 | 0.00 | 0.00 | 0.00 | 98 | 1013.7 |
| 20260507083516 | 2 | 189 | 0.0 | 1.6 | 0.00 | 0.00 | 0.00 | 98 | 1013.8 |
| 20260507083013 | 3 | 200 | 0.0 | 0.0 | 0.00 | 0.00 | 0.00 | 98 | 1014.0 |
| 20260507082509 | 3 | 195 | 0.0 | 0.0 | 0.00 | 0.00 | 0.00 | 98 | 1014.0 |
| 20260507082005 | 3 | 195 | 0.0 | 0.0 | 0.00 | 0.00 | 0.00 | 98 | 1013.7 |
| 20260507081501 | 3 | 198 | 0.0 | 0.0 | 0.00 | 0.00 | 0.00 | 97 | 1013.8 |
| 20260507080959 | 3 | 197 | 0.0 | 0.0 | 0.00 | 0.00 | 0.00 | 97 | 1013.8 |
| 20260507080454 | 3 | 199 | 0.0 | 0.0 | 0.00 | 0.00 | 0.00 | 97 | 1013.8 |
| 20260507075949 | 3 | 188 | 1.6 | 1.6 | 0.00 | 0.00 | 0.00 | 96 | 1013.9 |
| 20260507075446 | 3 | 199 | 0.0 | 0.0 | 0.00 | 0.00 | 0.00 | 95 | 1013.9 |
| 20260507074943 | 3 | 199 | 0.0 | 0.0 | 0.00 | 0.00 | 0.00 | 95 | 1013.8 |
| 20260507074440 | 3 | 199 | 0.0 | 0.0 | 0.00 | 0.00 | 0.00 | 95 | 1013.7 |
| 20260507073938 | 4 | 197 | 0.0 | 0.0 | 0.00 | 0.00 | 0.00 | 94 | 1013.8 |
| 20260507073434 | 3 | 199 | 0.0 | 0.0 | 0.00 | 0.00 | 0.00 | 93 | 1013.8 |
| 20260507072931 | 4 | 197 | 0.0 | 0.0 | 0.00 | 0.00 | 0.00 | 93 | 1013.9 |
| 20260507072428 | 5 | 194 | 0.0 | 0.0 | 0.00 | 0.00 | 0.00 | 92 | 1013.9 |
| 20260507071926 | 5 | 198 | 0.0 | 0.0 | 0.00 | 0.00 | 0.00 | 90 | 1013.8 |
| 20260507071422 | 5 | 198 | 0.0 | 0.0 | 0.00 | 0.00 | 0.00 | 89 | 1014.0 |
| 20260507070919 | 5 | 198 | 0.0 | 0.0 | 0.00 | 0.00 | 0.00 | 88 | 1013.9 |
| 20260507070417 | 5 | 198 | 0.0 | 0.0 | 0.00 | 0.00 | 0.00 | 88 | 1014.1 |
| 20260507065913 | 5 | 198 | 0.0 | 0.0 | 0.00 | 0.00 | 0.00 | 87 | 1013.8 |
| 20260507065410 | 5 | 197 | 0.0 | 0.0 | 0.00 | 0.00 | 0.00 | 85 | 1014.1 |
| 20260507064907 | 5 | 193 | 0.0 | 1.6 | 0.00 | 0.00 | 0.00 | 86 | 1013.8 |
| 20260507064405 | 6 | 193 | 0.0 | 0.0 | 0.00 | 0.00 | 0.00 | 86 | 1014.0 |
| 20260507063903 | 6 | 197 | 0.0 | 0.0 | 0.00 | 0.00 | 0.00 | 85 | 1014.0 |
| 20260507063400 | 6 | 198 | 0.0 | 0.0 | 0.00 | 0.00 | 0.00 | 84 | 1014.1 |
| 20260507062857 | 7 | 197 | 0.0 | 0.0 | 0.00 | 0.00 | 0.00 | 83 | 1013.9 |
| 20260507062353 | 7 | 196 | 0.0 | 0.0 | 0.00 | 0.00 | 0.00 | 82 | 1013.9 |
| 20260507061851 | 7 | 200 | 0.0 | 0.0 | 0.00 | 0.00 | 0.00 | 82 | 1014.2 |
| 20260507061349 | 7 | 198 | 0.0 | 0.0 | 0.00 | 0.00 | 0.00 | 80 | 1013.9 |
| 20260507060847 | 7 | 197 | 0.0 | 0.0 | 0.00 | 0.00 | 0.00 | 81 | 1014.0 |
| 20260507060343 | 8 | 195 | 0.0 | 0.0 | 0.00 | 0.00 | 0.00 | 80 | 1014.0 |
| 20260507055840 | 8 | 195 | 0.0 | 0.0 | 0.00 | 0.00 | 0.00 | 76 | 1014.1 |
| 20260507055335 | 8 | 197 | 0.0 | 0.0 | 0.00 | 0.00 | 0.00 | 73 | 1014.3 |
| 20260507054832 | 8 | 185 | 0.0 | 0.0 | 0.00 | 0.00 | 0.00 | 72 | 1014.5 |
| 20260507054328 | 8 | 200 | 0.0 | 0.0 | 0.00 | 0.00 | 0.00 | 72 | 1014.5 |
| 20260507053826 | 8 | 207 | 0.0 | 0.0 | 0.00 | 0.00 | 0.00 | 71 | 1014.4 |
| 20260507053323 | 8 | 196 | 0.0 | 0.0 | 0.00 | 0.00 | 0.00 | 73 | 1014.6 |
| 20260507052822 | 8 | 215 | 1.6 | 1.6 | 0.00 | 0.00 | 0.00 | 73 | 1014.6 |
| 20260507052318 | 8 | 203 | 1.6 | 1.6 | 0.00 | 0.00 | 0.00 | 75 | 1014.8 |
| 20260507051816 | 8 | 211 | 0.0 | 1.6 | 0.00 | 0.00 | 0.00 | 79 | 1014.6 |
| 20260507051313 | 8 | 199 | 0.0 | 0.0 | 0.00 | 0.00 | 0.00 | 82 | 1014.6 |
| 20260507050810 | 8 | 203 | 0.0 | 0.0 | 0.00 | 0.00 | 0.00 | 81 | 1014.6 |
| 20260507050306 | 8 | 267 | 1.6 | 3.2 | 0.00 | 0.00 | 0.00 | 79 | 1014.7 |
| 20260507045803 | 8 | 199 | 0.0 | 0.0 | 0.00 | 0.00 | 0.00 | 83 | 1014.7 |
| 20260507045300 | 8 | 201 | 0.0 | 0.0 | 0.00 | 0.00 | 0.00 | 84 | 1014.5 |
| 20260507044757 | 8 | 208 | 0.0 | 0.0 | 0.00 | 0.00 | 0.00 | 84 | 1014.4 |
| 20260507044253 | 8 | 227 | 1.6 | 1.6 | 0.00 | 0.00 | 0.00 | 84 | 1014.5 |
| 20260507043749 | 8 | 194 | 0.0 | 0.0 | 0.00 | 0.00 | 0.00 | 82 | 1014.5 |
| 20260507043246 | 8 | 198 | 0.0 | 0.0 | 0.00 | 0.00 | 0.00 | 82 | 1014.5 |
| 20260507042743 | 8 | 198 | 0.0 | 0.0 | 0.00 | 0.00 | 0.00 | 82 | 1014.4 |
| 20260507042238 | 8 | 197 | 0.0 | 0.0 | 0.00 | 0.00 | 0.00 | 82 | 1014.4 |
| 20260507041736 | 8 | 193 | 0.0 | 0.0 | 0.00 | 0.00 | 0.00 | 82 | 1014.4 |
| 20260507041232 | 8 | 198 | 0.0 | 0.0 | 0.00 | 0.00 | 0.00 | 81 | 1014.6 |
| 20260507040729 | 8 | 198 | 0.0 | 0.0 | 0.00 | 0.00 | 0.00 | 81 | 1014.4 |
| 20260507040225 | 8 | 193 | 0.0 | 0.0 | 0.00 | 0.00 | 0.00 | 80 | 1014.2 |
| 20260507035721 | 8 | 196 | 0.0 | 0.0 | 0.00 | 2.16 | 2.16 | 79 | 1014.4 |
| 20260507035217 | 8 | 193 | 0.0 | 1.6 | 0.00 | 2.16 | 2.16 | 77 | 1014.3 |
| 20260507034714 | 8 | 196 | 0.0 | 0.0 | 0.00 | 2.16 | 2.16 | 77 | 1014.4 |
| 20260507034211 | 8 | 193 | 0.0 | 0.0 | 0.00 | 2.16 | 2.16 | 78 | 1014.4 |
| 20260507033710 | 8 | 200 | 0.0 | 0.0 | 0.00 | 2.16 | 2.16 | 78 | 1014.4 |
| 20260507033207 | 9 | 199 | 0.0 | 0.0 | 0.00 | 2.16 | 2.16 | 78 | 1014.3 |
| 20260507032704 | 9 | 199 | 0.0 | 0.0 | 0.00 | 2.16 | 2.16 | 77 | 1014.2 |
| 20260507032200 | 9 | 197 | 0.0 | 0.0 | 0.00 | 2.16 | 2.16 | 76 | 1014.0 |
| 20260507031657 | 9 | 200 | 0.0 | 0.0 | 0.00 | 2.16 | 2.16 | 76 | 1014.0 |
| 20260507031153 | 9 | 191 | 0.0 | 0.0 | 0.00 | 2.16 | 2.16 | 74 | 1014.0 |
| 20260507030650 | 9 | 199 | 0.0 | 0.0 | 0.00 | 2.16 | 2.16 | 73 | 1014.3 |
| 20260507030148 | 9 | 197 | 0.0 | 0.0 | 0.00 | 2.16 | 2.16 | 73 | 1014.0 |
| 20260507025645 | 10 | 195 | 0.0 | 0.0 | 0.00 | 2.16 | 2.16 | 72 | 1014.0 |
| 20260507025142 | 10 | 200 | 0.0 | 0.0 | 0.00 | 2.16 | 2.16 | 71 | 1014.0 |
| 20260507024640 | 10 | 201 | 0.0 | 0.0 | 0.00 | 2.16 | 2.16 | 72 | 1013.9 |
| 20260507024137 | 10 | 201 | 0.0 | 0.0 | 0.00 | 2.16 | 2.16 | 71 | 1014.0 |
| 20260507023632 | 10 | 196 | 0.0 | 0.0 | 0.00 | 2.16 | 2.16 | 69 | 1013.7 |
| 20260507023130 | 10 | 197 | 0.0 | 0.0 | 0.00 | 2.16 | 2.16 | 70 | 1013.8 |
| 20260507022627 | 10 | 202 | 0.0 | 1.6 | 0.00 | 2.16 | 2.16 | 68 | 1013.8 |
| 20260507022122 | 10 | 197 | 0.0 | 0.0 | 0.00 | 2.16 | 2.16 | 68 | 1013.8 |
| 20260507021619 | 10 | 202 | 1.6 | 3.2 | 0.00 | 2.16 | 2.16 | 69 | 1013.8 |
| 20260507021115 | 10 | 216 | 0.0 | 0.0 | 0.00 | 2.16 | 2.16 | 72 | 1013.8 |
| 20260507020613 | 10 | 201 | 0.0 | 0.0 | 0.00 | 2.16 | 2.16 | 75 | 1013.3 |
| 20260507020109 | 10 | 198 | 0.0 | 0.0 | 0.00 | 2.16 | 2.16 | 71 | 1013.6 |
| 20260507015608 | 10 | 323 | 0.0 | 1.6 | 0.00 | 2.16 | 2.16 | 69 | 1013.5 |
| 20260507015105 | 10 | 243 | 4.8 | 8.0 | 0.00 | 2.16 | 2.16 | 68 | 1013.3 |
| 20260507014601 | 10 | 16 | 3.2 | 3.2 | 0.00 | 2.16 | 2.16 | 69 | 1013.2 |
| 20260507014057 | 10 | 218 | 1.6 | 1.6 | 0.00 | 2.16 | 2.16 | 69 | 1013.2 |
| 20260507013554 | 10 | 331 | 3.2 | 3.2 | 0.00 | 2.16 | 2.16 | 72 | 1013.2 |
| 20260507013051 | 10 | 224 | 1.6 | 1.6 | 0.00 | 2.16 | 2.16 | 71 | 1013.2 |
| 20260507012548 | 10 | 205 | 0.0 | 0.0 | 0.00 | 2.16 | 2.16 | 73 | 1013.2 |
| 20260507012044 | 10 | 218 | 1.6 | 1.6 | 0.00 | 2.16 | 2.16 | 75 | 1013.3 |
| 20260507011542 | 10 | 197 | 0.0 | 1.6 | 0.00 | 2.16 | 2.16 | 76 | 1013.3 |
| 20260507011038 | 10 | 247 | 1.6 | 1.6 | 0.00 | 2.16 | 2.16 | 75 | 1013.5 |
| 20260507010532 | 11 | 347 | 0.0 | 1.6 | 0.00 | 2.16 | 2.16 | 75 | 1013.6 |
| 20260507010029 | 11 | 128 | 0.0 | 1.6 | 0.00 | 2.16 | 2.16 | 72 | 1013.4 |
| 20260507005527 | 11 | 222 | 0.0 | 0.0 | 0.00 | 2.16 | 2.16 | 75 | 1013.6 |
| 20260507005023 | 11 | 203 | 0.0 | 0.0 | 0.00 | 2.16 | 2.16 | 72 | 1013.7 |
| 20260507004520 | 11 | 215 | 1.6 | 1.6 | 0.00 | 2.16 | 2.16 | 68 | 1013.8 |
| 20260507004018 | 11 | 213 | 0.0 | 0.0 | 0.00 | 2.16 | 2.16 | 68 | 1013.6 |
| 20260507003513 | 11 | 356 | 4.8 | 4.8 | 0.00 | 2.16 | 2.16 | 68 | 1013.6 |
| 20260507003008 | 11 | 220 | 0.0 | 1.6 | 0.00 | 2.16 | 2.16 | 67 | 1013.9 |
| 20260507002505 | 11 | 223 | 1.6 | 3.2 | 0.00 | 2.16 | 2.16 | 67 | 1013.6 |
| 20260507002001 | 11 | 198 | 3.2 | 4.8 | 0.00 | 2.16 | 2.16 | 68 | 1013.5 |
| 20260507001457 | 11 | 230 | 0.0 | 1.6 | 0.00 | 2.16 | 2.16 | 69 | 1013.5 |
| 20260507000955 | 11 | 243 | 4.8 | 4.8 | 0.00 | 2.16 | 2.16 | 69 | 1013.4 |
| 20260507000451 | 12 | 215 | 3.2 | 3.2 | 0.00 | 2.16 | 2.16 | 70 | 1013.5 |
| 20260506235946 | 12 | 254 | 1.6 | 1.6 | 0.00 | 2.16 | 2.16 | 70 | 1013.6 |
| 20260506235444 | 12 | 192 | 0.0 | 1.6 | 0.00 | 2.16 | 2.16 | 72 | 1013.3 |
| 20260506234939 | 12 | 268 | 0.0 | 1.6 | 0.00 | 2.16 | 2.16 | 74 | 1013.2 |
| 20260506234437 | 12 | 224 | 1.6 | 3.2 | 0.00 | 2.16 | 2.16 | 74 | 1013.0 |
| 20260506233935 | 12 | 202 | 0.0 | 0.0 | 0.00 | 2.16 | 2.16 | 73 | 1013.1 |
| 20260506233431 | 12 | 218 | 1.6 | 3.2 | 0.00 | 2.16 | 2.16 | 73 | 1013.0 |
| 20260506232928 | 12 | 210 | 0.0 | 0.0 | 0.00 | 2.16 | 2.16 | 74 | 1012.8 |
| 20260506232424 | 12 | 228 | 1.6 | 1.6 | 0.00 | 2.16 | 2.16 | 73 | 1012.9 |
| 20260506231920 | 12 | 284 | 1.6 | 1.6 | 0.00 | 2.16 | 2.16 | 74 | 1013.0 |
| 20260506231418 | 12 | 217 | 1.6 | 1.6 | 0.00 | 2.16 | 2.16 | 75 | 1012.7 |
| 20260506230915 | 12 | 219 | 1.6 | 1.6 | 0.00 | 2.16 | 2.16 | 75 | 1012.5 |
| 20260506230411 | 12 | 206 | 0.0 | 0.0 | 0.00 | 2.16 | 2.16 | 75 | 1012.6 |
| 20260506225908 | 12 | 204 | 0.0 | 0.0 | 0.00 | 2.16 | 2.16 | 75 | 1012.6 |
| 20260506225405 | 12 | 213 | 1.6 | 3.2 | 0.00 | 2.16 | 2.16 | 74 | 1012.4 |
| 20260506224902 | 12 | 210 | 1.6 | 3.2 | 0.00 | 2.16 | 2.16 | 74 | 1012.4 |
| 20260506224359 | 12 | 181 | 1.6 | 1.6 | 0.00 | 2.16 | 2.16 | 75 | 1012.5 |
| 20260506223855 | 12 | 309 | 1.6 | 3.2 | 0.00 | 2.16 | 2.16 | 75 | 1012.4 |
| 20260506223350 | 12 | 216 | 0.0 | 0.0 | 0.00 | 2.16 | 2.16 | 73 | 1012.6 |
| 20260506222848 | 12 | 224 | 1.6 | 1.6 | 0.00 | 2.16 | 2.16 | 74 | 1012.4 |
| 20260506222344 | 12 | 205 | 0.0 | 0.0 | 0.00 | 2.16 | 2.16 | 75 | 1012.4 |
| 20260506221842 | 12 | 205 | 1.6 | 1.6 | 0.00 | 2.16 | 2.16 | 74 | 1012.5 |
| 20260506221339 | 12 | 243 | 3.2 | 3.2 | 0.00 | 2.16 | 2.16 | 74 | 1012.4 |
| 20260506220836 | 12 | 202 | 0.0 | 1.6 | 0.00 | 2.16 | 2.16 | 74 | 1012.2 |
| 20260506220331 | 12 | 277 | 3.2 | 3.2 | 0.00 | 2.16 | 2.16 | 74 | 1012.0 |
| 20260506215829 | 12 | 97 | 1.6 | 1.6 | 0.00 | 2.16 | 2.16 | 74 | 1012.0 |
| 20260506215324 | 12 | 210 | 1.6 | 1.6 | 0.00 | 2.16 | 2.16 | 75 | 1012.2 |
| 20260506214820 | 12 | 263 | 3.2 | 3.2 | 0.00 | 2.16 | 2.16 | 75 | 1012.2 |
| 20260506214317 | 12 | 194 | 0.0 | 0.0 | 0.00 | 2.16 | 2.16 | 76 | 1012.2 |
| 20260506213816 | 12 | 201 | 0.0 | 0.0 | 0.00 | 2.16 | 2.16 | 77 | 1012.0 |
| 20260506213313 | 12 | 206 | 1.6 | 1.6 | 0.00 | 2.16 | 2.16 | 78 | 1012.0 |
| 20260506212810 | 12 | 202 | 0.0 | 0.0 | 0.00 | 2.16 | 2.16 | 78 | 1012.1 |
| 20260506212307 | 12 | 201 | 0.0 | 1.6 | 0.00 | 2.16 | 2.16 | 77 | 1012.0 |